Location: Moscow
(55.7500°N, 37.5830°E)
Time: 22:20:50
(UTC+03:00)

COSMOS 2251 DEB - Pass Details

Date: 07 July 2022
Orbit: 738 x 847 km, 74.1° (Epoch: 17 August)

Event Time Altitude Azimuth Distance (km) Brightness Sun altitude
Rises 23:02:32 0° 307° (NW) 3,283 ? -9.3°
Reaches altitude 10° 23:07:41 10° 349° (N) 2,321 ? -9.6°
Maximum altitude 23:08:24 10° 357° (N) 2,298 ? -9.6°
Drops below altitude 10° 23:09:08 10° 5° (N) 2,312 ? -9.6°
Sets 23:14:11 0° 48° (NE) 3,210 ? -9.9°
